CW0214 Weather Reports


time (UTC)temp
C
wind
direction
speed
KPH
gust
KPH
rain 1hr
cm
rain 24hr
cm
rain mn
cm
humidity
%
barometer
mb
20260905155406 38 57 6.4 19.3 0.00 0.00 0.00 27 1017.0
20260905154905 38 30 4.8 20.9 0.00 0.00 0.00 26 1017.0
20260905154406 38 14 8.0 19.3 0.00 0.00 0.00 26 1017.1
20260905153905 38 14 6.4 16.1 0.00 0.00 0.00 26 1017.0
20260905152905 38 10 4.8 19.3 0.00 0.00 0.00 27 1017.1
20260905152405 38 110 1.6 12.9 0.00 0.00 0.00 26 1017.1
20260905151905 37 15 1.6 16.1 0.00 0.00 0.00 26 1017.1
20260905150905 37 18 8.0 22.5 0.00 0.00 0.00 28 1017.2
20260905150405 37 30 4.8 12.9 0.00 0.00 0.00 29 1017.3
20260905145905 37 29 8.0 16.1 0.00 0.00 0.00 29 1017.4
20260905145405 37 57 4.8 19.3 0.00 0.00 0.00 29 1017.4
20260905144905 37 27 3.2 14.5 0.00 0.00 0.00 29 1017.4
20260905144406 37 16 6.4 22.5 0.00 0.00 0.00 29 1017.5
20260905143905 37 19 3.2 12.9 0.00 0.00 0.00 29 1017.5
20260905142906 37 29 4.8 14.5 0.00 0.00 0.00 28 1017.6
20260905142405 36 71 1.6 11.3 0.00 0.00 0.00 29 1017.6
20260905141905 36 48 0.0 8.0 0.00 0.00 0.00 29 1017.6
20260905141405 36 71 0.0 4.8 0.00 0.00 0.00 30 1017.7
20260905140405 36 15 3.2 11.3 0.00 0.00 0.00 30 1017.9
20260905135905 36 37 0.0 4.8 0.00 0.00 0.00 30 1018.0
20260905135405 36 71 4.8 12.9 0.00 0.00 0.00 30 1018.1
20260905134405 37 23 8.0 19.3 0.00 0.00 0.00 29 1018.2
20260905133905 37 30 6.4 20.9 0.00 0.00 0.00 29 1018.1
20260905133405 36 34 3.2 14.5 0.00 0.00 0.00 29 1018.1
20260905132905 36 17 3.2 16.1 0.00 0.00 0.00 29 1018.1
20260905132405 36 21 3.2 20.9 0.00 0.00 0.00 30 1018.1
20260905131905 36 23 8.0 20.9 0.00 0.00 0.00 29 1018.2
20260905131405 36 7 4.8 12.9 0.00 0.00 0.00 29 1018.3
20260905130905 36 354 3.2 9.7 0.00 0.00 0.00 31 1018.3
20260905130405 36 329 3.2 12.9 0.00 0.00 0.00 31 1018.3
20260905125905 36 63 0.0 1.6 0.00 0.00 0.00 32 1018.4
20260905125405 35 63 1.6 4.8 0.00 0.00 0.00 33 1018.3
20260905124905 35 336 0.0 1.6 0.00 0.00 0.00 34 1018.4
20260905124406 35 336 3.2 9.7 0.00 0.00 0.00 34 1018.4
20260905123905 35 333 1.6 9.7 0.00 0.00 0.00 35 1018.5
20260905123405 35 277 3.2 11.3 0.00 0.00 0.00 37 1018.5
20260905122405 34 346 1.6 9.7 0.00 0.00 0.00 38 1018.5
20260905121905 34 346 1.6 8.0 0.00 0.00 0.00 38 1018.6
20260905121405 33 346 0.0 1.6 0.00 0.00 0.00 39 1018.7
20260905120905 34 346 0.0 1.6 0.00 0.00 0.00 39 1018.7
20260905120405 33 346 0.0 1.6 0.00 0.00 0.00 40 1018.7
20260905115905 33 346 0.0 4.8 0.00 0.00 0.00 41 1018.7
20260905115405 33 346 0.0 1.6 0.00 0.00 0.00 42 1018.8
20260905114905 32 346 0.0 8.0 0.00 0.00 0.00 44 1018.9
20260905114405 32 346 0.0 11.3 0.00 0.00 0.00 43 1019.0
20260905113905 32 346 1.6 9.7 0.00 0.00 0.00 43 1019.1
20260905113405 32 346 0.0 1.6 0.00 0.00 0.00 43 1019.2
20260905112905 32 346 0.0 1.6 0.00 0.00 0.00 43 1019.2
20260905112405 31 346 0.0 0.0 0.00 0.00 0.00 44 1019.1
20260905111905 31 346 0.0 4.8 0.00 0.00 0.00 44 1019.3
20260905111405 31 346 1.6 4.8 0.00 0.00 0.00 45 1019.3
20260905110905 31 346 0.0 1.6 0.00 0.00 0.00 46 1019.4
20260905110405 30 346 0.0 1.6 0.00 0.00 0.00 46 1019.5
20260905105905 30 346 0.0 4.8 0.00 0.00 0.00 48 1019.6
20260905105405 30 346 3.2 8.0 0.00 0.00 0.00 48 1019.7
20260905104905 30 342 3.2 8.0 0.00 0.00 0.00 48 1019.7
20260905104405 30 304 0.0 1.6 0.00 0.00 0.00 50 1019.8
20260905103405 29 304 0.0 1.6 0.00 0.00 0.00 52 1019.8
20260905102905 28 304 0.0 3.2 0.00 0.00 0.00 52 1019.8
20260905101405 27 234 0.0 4.8 0.00 0.00 0.00 58 1019.8
20260905100905 26 234 3.2 8.0 0.00 0.00 0.00 58 1019.8
20260905100405 26 313 0.0 3.2 0.00 0.00 0.00 58 1019.8
20260905095905 26 313 1.6 4.8 0.00 0.00 0.00 61 1019.7
20260905095405 26 313 3.2 4.8 0.00 0.00 0.00 61 1019.7
20260905094905 25 313 1.6 8.0 0.00 0.00 0.00 63 1019.6
20260905094405 25 313 3.2 4.8 0.00 0.00 0.00 65 1019.7
20260905093905 24 266 3.2 8.0 0.00 0.00 0.00 66 1019.7
20260905093405 23 249 3.2 8.0 0.00 0.00 0.00 67 1019.6
20260905092905 23 298 4.8 9.7 0.00 0.00 0.00 67 1019.6
20260905091905 23 301 4.8 11.3 0.00 0.00 0.00 69 1019.5
20260905091405 22 355 1.6 8.0 0.00 0.00 0.00 70 1019.5
20260905090905 22 308 3.2 8.0 0.00 0.00 0.00 72 1019.5
20260905090405 22 279 4.8 9.7 0.00 0.00 0.00 72 1019.4
20260905085905 22 301 8.0 9.7 0.00 0.00 0.00 72 1019.3
20260905085405 21 295 4.8 11.3 0.00 0.00 0.00 73 1019.3
20260905084905 21 316 3.2 9.7 0.00 0.00 0.00 75 1019.3
20260905084405 21 316 3.2 11.3 0.00 0.00 0.00 75 1019.3
20260905083905 21 15 1.6 8.0 0.00 0.00 0.00 75 1019.3
20260905083405 21 296 4.8 12.9 0.00 0.00 0.00 75 1019.3
20260905082405 21 296 4.8 12.9 0.00 0.00 0.00 74 1019.2
20260905081405 21 335 4.8 9.7 0.00 0.00 0.00 73 1019.2
20260905080905 21 224 1.6 4.8 0.00 0.00 0.00 73 1019.2
20260905080405 21 318 1.6 4.8 0.00 0.00 0.00 74 1019.2
20260905075905 21 323 1.6 4.8 0.00 0.00 0.00 74 1019.2
20260905075405 21 306 3.2 4.8 0.00 0.00 0.00 74 1019.1
20260905074905 21 344 1.6 4.8 0.00 0.00 0.00 75 1019.0
20260905074405 21 336 4.8 8.0 0.00 0.00 0.00 74 1019.1
20260905073905 21 105 0.0 0.0 0.00 0.00 0.00 75 1019.0
20260905073405 21 105 0.0 0.0 0.00 0.00 0.00 76 1018.9
20260905072905 21 105 0.0 0.0 0.00 0.00 0.00 76 1019.0
20260905072406 20 105 0.0 3.2 0.00 0.00 0.00 77 1019.1
20260905071905 20 105 0.0 1.6 0.00 0.00 0.00 78 1019.0
20260905071405 20 105 0.0 0.0 0.00 0.00 0.00 79 1018.9
20260905070905 20 105 0.0 0.0 0.00 0.00 0.00 79 1018.7
20260905070405 20 105 0.0 0.0 0.00 0.00 0.00 79 1018.7
20260905065905 20 105 0.0 0.0 0.00 0.00 0.00 79 1018.7
20260905065405 19 105 0.0 0.0 0.00 0.00 0.00 79 1018.7
20260905064905 19 105 0.0 0.0 0.00 0.00 0.00 79 1018.6
20260905063905 19 105 0.0 0.0 0.00 0.00 0.00 79 1018.6
20260905063405 19 105 0.0 0.0 0.00 0.00 0.00 79 1018.5
20260905062904 19 105 0.0 0.0 0.00 0.00 0.00 79 1018.2
20260905061905 19 105 0.0 0.0 0.00 0.00 0.00 78 1018.1
20260905061405 20 105 0.0 0.0 0.00 0.00 0.00 78 1018.0
20260905060905 20 105 0.0 1.6 0.00 0.00 0.00 78 1018.1
20260905060405 20 105 0.0 0.0 0.00 0.00 0.00 78 1018.0
20260905055904 20 105 0.0 0.0 0.00 0.00 0.00 78 1017.9
20260905054905 20 105 0.0 0.0 0.00 0.00 0.00 77 1017.8
20260905054404 20 105 0.0 0.0 0.00 0.00 0.00 77 1017.7
20260905053405 20 105 0.0 1.6 0.00 0.00 0.00 77 1017.7
20260905052905 20 105 0.0 0.0 0.00 0.00 0.00 77 1017.7
20260905052405 20 105 0.0 0.0 0.00 0.00 0.00 77 1017.8
20260905051405 20 105 0.0 0.0 0.00 0.00 0.00 75 1017.6
20260905050904 20 105 0.0 0.0 0.00 0.00 0.00 75 1017.6
20260905050405 20 105 0.0 0.0 0.00 0.00 0.00 75 1017.5
20260905045905 20 105 0.0 0.0 0.00 0.00 0.00 75 1017.6
20260905044904 21 105 0.0 0.0 0.00 0.00 0.00 74 1017.6
20260905044405 21 105 0.0 0.0 0.00 0.00 0.00 74 1017.5
20260905043905 21 105 0.0 0.0 0.00 0.00 0.00 73 1017.4
20260905043405 21 105 0.0 3.2 0.00 0.00 0.00 73 1017.6
20260905042905 21 105 1.6 3.2 0.00 0.00 0.00 72 1017.5
20260905042404 21 105 0.0 0.0 0.00 0.00 0.00 72 1017.5
20260905041905 21 105 0.0 0.0 0.00 0.00 0.00 73 1017.5
20260905040905 21 105 0.0 0.0 0.00 0.00 0.00 72 1017.6
20260905040404 21 105 0.0 0.0 0.00 0.00 0.00 72 1017.6
20260905035905 21 105 0.0 0.0 0.00 0.00 0.00 72 1017.6
20260905035405 21 105 0.0 0.0 0.00 0.00 0.00 71 1017.6
20260905034905 21 105 0.0 0.0 0.00 0.00 0.00 71 1017.5
20260905034405 21 105 0.0 0.0 0.00 0.00 0.00 71 1017.5
20260905033405 21 105 0.0 0.0 0.00 0.00 0.00 71 1017.5
20260905032904 22 105 0.0 1.6 0.00 0.00 0.00 71 1017.6
20260905032405 22 105 0.0 0.0 0.00 0.00 0.00 71 1017.6
20260905031905 22 105 0.0 0.0 0.00 0.00 0.00 71 1017.7
20260905031404 22 105 0.0 0.0 0.00 0.00 0.00 71 1017.8
20260905030904 22 105 0.0 0.0 0.00 0.00 0.00 72 1017.8
20260905025905 22 105 0.0 0.0 0.00 0.00 0.00 71 1017.8
20260905025405 22 105 0.0 0.0 0.00 0.00 0.00 71 1017.8
20260905024904 22 105 0.0 0.0 0.00 0.00 0.00 71 1017.8
20260905024405 22 105 0.0 0.0 0.00 0.00 0.00 71 1017.9
20260905023904 22 105 0.0 0.0 0.00 0.00 0.00 71 1017.9
20260905023405 22 105 0.0 0.0 0.00 0.00 0.00 70 1017.9
20260905022905 22 105 0.0 0.0 0.00 0.00 0.00 69 1017.8
20260905022404 22 105 0.0 0.0 0.00 0.00 0.00 68 1017.9
20260905021905 22 105 0.0 0.0 0.00 0.00 0.00 68 1017.9
20260905021405 23 105 0.0 0.0 0.00 0.00 0.00 67 1018.0
20260905020904 23 105 0.0 0.0 0.00 0.00 0.00 67 1017.9
20260905020405 23 105 0.0 0.0 0.00 0.00 0.00 66 1017.8
20260905015904 23 105 0.0 0.0 0.00 0.00 0.00 66 1017.8
20260905015405 23 105 0.0 1.6 0.00 0.00 0.00 66 1017.9
20260905014905 24 105 0.0 1.6 0.00 0.00 0.00 65 1017.9
20260905014405 24 105 0.0 0.0 0.00 0.00 0.00 64 1017.9
20260905013904 24 105 0.0 0.0 0.00 0.00 0.00 64 1017.9
20260905013404 24 105 0.0 0.0 0.00 0.00 0.00 64 1018.0
20260905012905 24 105 0.0 1.6 0.00 0.00 0.00 63 1018.1
20260905012404 24 105 0.0 0.0 0.00 0.00 0.00 62 1018.1
20260905011904 24 105 0.0 8.0 0.00 0.00 0.00 62 1018.1
20260905011405 24 105 4.8 4.8 0.00 0.00 0.00 63 1018.1
20260905010905 24 105 0.0 0.0 0.00 0.00 0.00 63 1018.1
20260905005405 25 105 0.0 0.0 0.00 0.00 0.00 63 1018.0
20260905004904 25 105 0.0 0.0 0.00 0.00 0.00 63 1018.0
20260905004405 25 105 0.0 0.0 0.00 0.00 0.00 62 1018.1
20260905003404 25 105 4.8 4.8 0.00 0.00 0.00 62 1018.2
20260905002905 25 105 0.0 1.6 0.00 0.00 0.00 62 1018.3
20260905002405 25 105 0.0 0.0 0.00 0.00 0.00 62 1018.3
20260905001405 25 105 0.0 0.0 0.00 0.00 0.00 62 1018.3
20260905000905 25 105 0.0 0.0 0.00 0.00 0.00 62 1018.4
20260904235904 25 105 0.0 0.0 0.00 0.00 0.00 60 1018.5
20260904235404 26 105 0.0 3.2 0.00 0.00 0.00 59 1018.4
20260904234905 26 105 3.2 4.8 0.00 0.00 0.00 59 1018.3
20260904234404 26 105 1.6 4.8 0.00 0.00 0.00 58 1018.4
20260904233905 26 105 0.0 0.0 0.00 0.00 0.00 56 1018.4
20260904232905 26 105 0.0 3.2 0.00 0.00 0.00 56 1018.6
20260904232404 26 105 0.0 1.6 0.00 0.00 0.00 52 1018.7
20260904231404 26 105 0.0 0.0 0.00 0.00 0.00 55 1018.6
20260904230904 26 105 0.0 0.0 0.00 0.00 0.00 54 1018.6
20260904230405 26 105 1.6 8.0 0.00 0.00 0.00 55 1018.6
20260904225905 26 105 4.8 9.7 0.00 0.00 0.00 55 1018.6
20260904225405 26 105 8.0 9.7 0.00 0.00 0.00 55 1018.6
20260904224905 26 104 4.8 9.7 0.00 0.00 0.00 56 1018.6
20260904224405 26 104 3.2 9.7 0.00 0.00 0.00 56 1018.6
20260904223905 26 104 6.4 11.3 0.00 0.00 0.00 56 1018.6
20260904223404 26 113 4.8 8.0 0.00 0.00 0.00 55 1018.6
20260904222904 26 113 4.8 8.0 0.00 0.00 0.00 55 1018.5
20260904222404 26 113 0.0 1.6 0.00 0.00 0.00 56 1018.5
20260904221904 26 113 0.0 8.0 0.00 0.00 0.00 56 1018.6
20260904221405 26 113 1.6 8.0 0.00 0.00 0.00 57 1018.6
20260904220905 26 113 4.8 9.7 0.00 0.00 0.00 57 1018.6
20260904220404 27 113 1.6 9.7 0.00 0.00 0.00 57 1018.6
20260904215404 27 97 8.0 11.3 0.00 0.00 0.00 56 1018.7
20260904214904 27 105 6.4 11.3 0.00 0.00 0.00 55 1018.7
20260904213905 27 114 4.8 9.7 0.00 0.00 0.00 53 1018.7
20260904212904 28 114 1.6 8.0 0.00 0.00 0.00 51 1018.8
20260904212404 28 114 0.0 1.6 0.00 0.00 0.00 50 1018.8
20260904211904 28 114 1.6 11.3 0.00 0.00 0.00 49 1018.8
20260904211404 29 102 4.8 12.9 0.00 0.00 0.00 47 1018.9
20260904210907 29 99 1.6 9.7 0.00 0.00 0.00 45 1019.1
20260904210404 29 292 0.0 1.6 0.00 0.00 0.00 41 1019.0
20260904205904 30 292 0.0 0.0 0.00 0.00 0.00 40 1018.9
20260904205404 30 242 0.0 1.6 0.00 0.00 0.00 40 1018.8
20260904204904 30 242 0.0 9.7 0.00 0.00 0.00 40 1018.8
20260904204405 29 242 1.6 8.0 0.00 0.00 0.00 40 1018.8
20260904203905 29 239 3.2 12.9 0.00 0.00 0.00 40 1018.9
20260904202904 29 240 0.0 1.6 0.00 0.00 0.00 43 1018.9
20260904202404 29 240 0.0 0.0 0.00 0.00 0.00 43 1018.8
20260904201904 29 240 0.0 11.3 0.00 0.00 0.00 43 1019.0
20260904201405 29 205 0.0 11.3 0.00 0.00 0.00 44 1018.9
20260904200405 28 224 0.0 1.6 0.00 0.00 0.00 47 1018.8
20260904195905 28 224 0.0 0.0 0.00 0.00 0.00 49 1018.8
20260904195404 28 224 0.0 1.6 0.00 0.00 0.00 49 1018.8
20260904194904 28 224 0.0 0.0 0.00 0.00 0.00 50 1018.8
20260904194404 28 224 0.0 0.0 0.00 0.00 0.00 50 1018.9
20260904193404 29 224 0.0 0.0 0.00 0.00 0.00 50 1018.7
20260904192905 29 224 0.0 1.6 0.00 0.00 0.00 50 1018.7
20260904192406 29 153 0.0 1.6 0.00 0.00 0.00 50 1018.4
20260904191406 29 277 0.0 1.6 0.00 0.00 0.00 52 1018.6
20260904190905 29 284 0.0 0.0 0.00 0.00 0.00 52 1018.9
20260904190406 29 284 0.0 0.0 0.00 0.00 0.00 52 1018.8
20260904185906 29 251 1.6 8.0 0.00 0.00 0.00 53 1018.4
20260904185406 29 241 1.6 11.3 0.00 0.00 0.00 53 1018.4
20260904184906 29 229 0.0 9.7 0.00 0.00 0.00 53 1018.6
20260904184405 29 240 0.0 0.0 0.00 0.00 0.00 53 1018.6
20260904183906 29 230 0.0 1.6 0.00 0.00 0.00 53 1018.5
20260904183408 29 194 0.0 3.2 0.00 0.00 0.00 53 1018.8
20260904182405 29 125 1.6 12.9 0.00 0.00 0.00 53 1018.9
20260904181905 29 96 1.6 8.0 0.00 0.00 0.00 53 1018.7
20260904180905 29 159 1.6 12.9 0.00 0.00 0.00 53 1019.2
20260904180406 29 110 0.0 0.0 0.00 0.00 0.00 53 1019.4
20260904175906 29 110 0.0 0.0 0.00 0.00 0.00 53 1019.5
20260904174906 30 135 1.6 8.0 0.00 0.00 0.00 52 1019.1
20260904174405 30 43 0.0 4.8 0.00 0.00 0.00 52 1018.9
20260904172905 30 72 1.6 12.9 0.00 0.00 0.00 50 1019.9
20260904171905 30 94 0.0 8.0 0.00 0.00 0.00 50 1020.0
20260904171406 30 47 1.6 14.5 0.00 0.00 0.00 50 1020.0
20260904170905 30 65 1.6 11.3 0.00 0.00 0.00 50 1019.7
20260904170405 30 69 0.0 11.3 0.00 0.00 0.00 50 1019.1
20260904165905 30 75 1.6 9.7 0.00 0.00 0.00 49 1018.9
20260904165405 30 87 0.0 1.6 0.00 0.00 0.00 49 1018.7
20260904164905 30 87 9.7 19.3 0.00 0.00 0.00 48 1018.8
20260904164405 30 19 3.2 9.7 0.00 0.00 0.00 48 1018.5
20260904163905 30 109 1.6 8.0 0.00 0.00 0.00 48 1018.2
20260904163406 30 19 3.2 9.7 0.00 0.00 0.00 48 1018.3
20260904162905 30 340 1.6 11.3 0.00 0.00 0.00 48 1018.5
20260904162405 31 120 4.8 12.9 0.00 0.00 0.00 47 1019.1
20260904161906 31 80 0.0 8.0 0.00 0.00 0.00 47 1020.0
20260904161405 31 74 0.0 4.8 0.00 0.00 0.00 47 1020.2
20260904160905 31 74 0.0 4.8 0.00 0.00 0.00 47 1020.1
20260904160405 31 74 0.0 1.6 0.00 0.00 0.00 46 1019.9
20260904155905 31 74 0.0 9.7 0.00 0.00 0.00 47 1019.9